{"data":{"norad_id":68569,"epoch":"2026-09-20T02:48:36.679680Z","epoch_age_seconds":77980,"freshness":"FRESH","line1":"1 68569U 26070AD  26263.11709120  .00025985  00000+0  77753-3 0  9999","line2":"2 68569  53.1573 175.1559 0000940  73.3727 286.7379 15.34399770 26384","mean_motion":15.3439977,"eccentricity":9.4e-5,"inclination_deg":53.1573,"raan_deg":175.1559,"arg_perigee_deg":73.3727,"mean_anomaly_deg":286.7379,"bstar":0.00077753,"rev_number":2638,"period_min":93.847772148715,"perigee_km":462.06088476882,"apogee_km":463.3469628625,"semimajor_km":6840.8409238157,"source":"CELESTRAK","updated_at":"2026-09-20T09:00:43.940083Z"}}